Hourly Data Report for September 11, 2017

All times are specified in Local Standard Time (LST). Add 1 hour to adjust for Daylight Saving Time where and when it is observed.

BAKER LAKE A
NUNAVUT

64°17'56.000" N
96°04'40.000" W
18.60 m
2300503
71926
YBK

Download Data

Hourly Data (September 2017)
Hourly Data Report for September 11, 2017
Temp Definition
°C
Dew Point Temp Definition
°C
Rel Hum Definition
%
Wind Dir Definition
10's deg

Wind Spd Definition
km/h
Visibility Definition
km
Stn Press Definition
kPa
Hmdx Definition


Wind Chill Definition


Weather Definition


TIME
00:00 Legend Double Dagger 4.2 0.4 77 8 32 24.1 100.42     Cloudy
01:00 Legend Double Dagger 4.0 0.6 78 7 35 24.1 100.30     LegendNANA
02:00 Legend Double Dagger 3.9 0.5 79 6 31 24.1 100.14     LegendNANA
03:00 Legend Double Dagger 3.7 0.4 79 5 32 24.1 100.08     Cloudy
04:00 Legend Double Dagger 3.6 -0.1 77 5 35 32.2 100.00     LegendNANA
05:00 Legend Double Dagger 3.6 -0.5 74 5 34 24.1 99.92     LegendNANA
06:00 Legend Double Dagger 3.8 -0.6 73 5 30 24.1 99.89     Cloudy
07:00 Legend Double Dagger 4.2 -1.4 67 5 33 32.2 99.87     LegendNANA
08:00 Legend Double Dagger 4.5 -1.9 63 4 37 32.2 99.83     Rain
09:00 Legend Double Dagger 4.8 -2.4 60 4 44 32.2 99.81     Rain
10:00 Legend Double Dagger 5.6 -2.7 55 4 37 32.2 99.84     LegendNANA
11:00 Legend Double Dagger 5.6 -3.2 53 4 40 32.2 99.81     LegendNANA
12:00 Legend Double Dagger 6.2 -3.7 49 4 47 32.2 99.84     Cloudy
13:00 Legend Double Dagger 5.7 -2.6 55 4 36 32.2 99.88     Rain
14:00 Legend Double Dagger 4.9 -1.1 65 3 28 32.2 99.91     Rain
15:00 Legend Double Dagger 6.2 -3.7 49 3 27 32.2 99.98     Rain
16:00 Legend Double Dagger 7.1 -4.5 44 2 33 32.2 100.03     LegendNANA
17:00 Legend Double Dagger 7.2 -5.0 42 2 32 32.2 100.09     LegendNANA
18:00 Legend Double Dagger 7.0 -4.3 44 1 33 32.2 100.16     Cloudy
19:00 Legend Double Dagger 6.5 -3.7 48 1 31 32.2 100.21     LegendNANA
20:00 Legend Double Dagger 5.5 -3.5 52 36 28 24.1 100.26     LegendNANA
21:00 Legend Double Dagger 5.5 -2.6 56 36 23 24.1 100.27     Mostly Cloudy
22:00 Legend Double Dagger 5.1 -2.0 60 36 21 24.1 100.29     LegendNANA
23:00 Legend Double Dagger 3.9 -1.7 67 34 17 24.1 100.35     LegendNANA

Notes on Data Quality.

Legend

  • E = Estimated
  • M = Missing
  • NA = Not Available
  • ‡ = Partner data that is not subject to review by the National Climate Archives
Date modified: